Regional Weather Roundup
Issued by NWS

Home | Current Version | Previous Version | Text Only | Print | Product List | Glossary On
Versions: 1 2 3 4 5 6 7 8 9 10 11 12 13 14 15 16 17 18 19 20 21 22 23 24 25 26 27 28 29 30 31 32 33 34 35 36 37 38 39 40 41 42 43 44 45 46 47 48 49 50
000
ASUS44 KEWX 290903
RWRTX
SOUTH TEXAS REGIONAL WEATHER ROUNDUP
NATIONAL WEATHER SERVICE AUSTIN/SAN ANTONIO TX
400 AM CDT MON MAY 29 2017

NOTE: "FAIR" INDICATED FEW OR NO CLOUDS BELOW 12,000 FEET WITH NO
SIGNIFICANT WEATHER AND/OR OBSTRUCTIONS TO VISIBILITY.

* - THESE STATIONS ARE NOT NWS OR FAA STATIONS...AND ARE NOT SUBJECT
    TO NWS AND FAA QUALITY CONTROL.

TXZ171-172-183>190-291000-
TEXAS HILL COUNTRY AND EDWARDS PLATEAU

CITY           SKY/WX    TMP DP  RH WIND       PRES   REMARKS
JUNCTION       CLOUDY    67  65  93 N5        30.00F
*LLANO         CLOUDY    68  66  94 CALM      30.02F
BURNET         CLOUDY    69  66  90 NE6       30.00F
*HORSESHOE BAY PTCLDY    68  66  94 MISG        N/A  FOG
*KERRVILLE     CLOUDY    66  65  95 CALM      29.93F
*FREDERICKSBRG CLOUDY    66  64  93 CALM      29.97F
*ROCKSPRINGS     N/A    N/A N/A N/A MISG        N/A
*BOERNE STAGE  CLOUDY    68  66  94 NE3       29.96F
*CASTROVILLE   CLOUDY    72  66  79 NE8       29.93S
HONDO          CLOUDY    73  67  81 NE13      29.89F
*UVALDE        CLOUDY    71  65  81 N6        29.90R
DEL RIO        CLOUDY    70  68  93 W7        29.94S
LAUGHLIN AFB   CLOUDY    70  65  85 W7        29.94S
CARRIZO SPRGS  CLOUDY    72  64  78 NW3       29.89R
*EAGLE PASS    NOT AVBL
$$

TXZ173-191>194-202-209-217>225-228-291000-
CENTRAL AND SOUTH CENTRAL TEXAS

CITY           SKY/WX    TMP DP  RH WIND       PRES   REMARKS
GEORGETOWN     CLOUDY    70  64  83 NE3       29.97S
AUSTIN/BERGSTM CLOUDY    72  68  87 E7        29.97R
AUSTIN/MABRY   CLOUDY    70  67  90 CALM      29.98R
*AUSTIN/EXEC   CLOUDY    68  68 100 CALM      29.97R
*LAGO VISTA    CLOUDY    68  67  95 NE6       29.98F
SAN MARCOS       N/A    N/A N/A N/A MISG        N/A
NEW BRAUNFELS  CLOUDY    72  67  84 NE10      29.95R
RANDOLPH AFB   CLOUDY    71  71  99 E5        29.96R
PT SAN ANTONIO CLOUDY    73  69  87 NE10      29.92R
SAN ANTONIO    CLOUDY    73  68  84 NE6       29.95R
STINSON FIELD  CLOUDY    74  67  78 NE8       29.92R
*LA GRANGE     CLOUDY    72  70  91 E3        29.92R
*GIDDINGS      CLOUDY    70  67  91 E5        29.96S
*GONZALES      CLOUDY    72  70  93 CALM      29.92R FOG
$$

TXZ163>164-176>182-195>201-210>213-226-227-235-291000-
SOUTHEAST TEXAS

CITY           SKY/WX    TMP DP  RH WIND       PRES   REMARKS
COLLEGE STN    CLOUDY    70  69  97 SW5       29.94F
*BRYAN         CLOUDY    69  69 100 CALM      29.94F
*CALDWELL      NOT AVBL
*CROCKETT        N/A    N/A N/A N/A MISG        N/A
*BRENHAM       CLOUDY    72  70  95 CALM      29.94F
HUNTSVILLE     CLOUDY    70  66  87 S6        29.91F
CONROE         CLOUDY    68  66  93 E7        29.92S
HOUSTON BUSH   CLOUDY    71  67  87 NE3       29.93R
HOUSTON HOBBY  LGT RAIN  71  68  90 E16G23    29.87F
*HOUSTON SW AP LGT RAIN  69  66  92 SE14G20   29.86F
PEARLAND       RAIN      74  69  85 E16G26    29.90F
HOUSTON HOOKS  CLOUDY    71  68  90 E3        29.92R
ELLINGTON FLD  NOT AVBL
SUGAR LAND     LGT RAIN  72  69  90 NW6       29.89S
*HOUSTON EXEC  CLOUDY    68  68 100 CALM      29.93S
*CLEVELAND MUN CLOUDY    68  67  94 CALM      29.94R
*WHARTON       CLOUDY    68  65  90 SE10      29.90F
*COLUMBUS      FAIR      69  67  94 NE5       29.90F
*EAGLE LAKE    CLOUDY    71  71  99 E3        29.89F
$$

TXZ214>216-236>238-291000-
THE UPPER TEXAS COAST

CITY           SKY/WX    TMP DP  RH WIND       PRES   REMARKS
*ORANGE        CLOUDY    68  67  97 CALM      29.97F
PORT ARTHUR    CLOUDY    68  66  93 E7        29.94F
GALVESTON      LGT RAIN  75  70  84 NE14      29.96F
ANGLETON       CLOUDY    72  67  84 NE8       29.88F
*BAY CITY      CLOUDY    69  68  96 NE3       29.89F
PALACIOS       CLOUDY    69  68  96 E8        29.89F
$$

TXZ229>234-239>247-291000-
TEXAS COASTAL BEND AND RIO GRANDE PLAINS

CITY           SKY/WX    TMP DP  RH WIND       PRES   REMARKS
VICTORIA       CLOUDY    73  68  84 E10       29.89F
*BEEVILLE      LGT RAIN  63  63 100 S21G32    29.88R
ROCKPORT       TSTM      81  77  88 E10       29.89R
*PORT ARANSAS  NOT AVBL
*PORT LAVACA   LGT RAIN  73  72  98 E10G17    29.90F
*INGLESIDE     TSTM      73  70  91 MISG      29.88R
CORPUS CHRISTI TSTM      70  69  97 W14       29.94R FOG
CORPUS NAS     CLOUDY    71  71 100 W31G46    29.89S THUNDER FOG
*ROBSTOWN      TSTM      69  69 100 CALM      29.97F
ALICE          LGT RAIN  70  68  93 E10       29.90F
KINGSVILLE NAS NOT AVBL
COTULLA        CLOUDY    76  69  79 NE8       29.86R
*FAITH RANCH   CLEAR     72  68  88 W5        29.91S
LAREDO         CLOUDY    73  69  87 NW5       29.90R
$$

TXZ248>255-291000-
DEEP SOUTH TEXAS

CITY           SKY/WX    TMP DP  RH WIND       PRES   REMARKS
BROWNSVILLE    CLOUDY    83  78  85 NW7       29.90R HX  93
PORT ISABEL    TSTM      71  68  90 NW25G36   29.88S FOG
*SOUTH PADRE   NOT AVBL
HARLINGEN      TSTM      70  70 100 NW14      29.92S FOG
*HEBBRONVILLE  LGT RAIN  67  66  97 SE13      29.88F
MCALLEN        TSTM      71  68  90 W8        29.97R FOG
*WESLACO       CLOUDY    69  68  96 NW10      29.96R
FALFURRIAS       N/A    N/A N/A N/A N7        29.94R
EDINBURG       TSTM      72  68  88 NW9       29.94S
*ZAPATA        NOT AVBL
$$

TXZ213>215-236>238-242>244-246-247-251-254-255-291000-
CMAN STATIONS

STATION/POSITION TIME  TEMP    WIND        PRES    WAVE
                       AIR SEA DIR/SP/G            HT/PER
                 (UTC) (F)     (DEG/KT/KT) (MB)    (FT/S)
SABINE PASS      0830   71 84   40/  9/ 11 1016.7
SEA RIM ST PARK  0800   70      20/ 10/ 13 1016.1
NORTH JETTY/GLS  0830      81   60/ 18/ 20 1014.3
EAGLE POINT      0830   73 82   90/ 11/ 13 1015.3
MORGANS POINT    0830   72 81   80/ 11/ 14 1014.0
MISSION/ARANSAS  0800   80                 1012.0
PORT O`CONNOR    0830   74      40/ 20/ 24 1012.6
PORT ARANSAS     0800   80 81   60/ 15/ 16 1011.2
MALAQUITE BEACH  0830   73 82  310/ 19/ 26 1010.7
BAFFIN BAY       0830   70 83              1013.8
PORT ISABEL      0824   82 84  170/  5/  8 1012.1
$$

GMZ080-GMZ150>470-291000-
OFFSHORE BUOY REPORTS

STATION/POSITION TIME  TEMP    WIND        PRES    WAVE
                       AIR SEA DIR/SP/G            HT/PER
                 (UTC) (F)     (DEG/KT/KT) (MB)    (FT/S)
20 E GALVESTON   0750   75 80   20/ 19/ 23 1014.8    4/ 5
90 E PT ARANSAS  0750   80 80   10/ 12/ 14 1012.9    4/ 6
35 NE PT MANSFLD 0750   81     120/ 10/ 10 1010.8    4/ 6
200 E PT ISABEL  0750   80 81  150/ 16/ 17 1012.3    6/ 8
$$




USA.gov is the U.S. government's official web portal to all federal, state and local government web resources and services.